Temperature
17 17 17 16 16 15 15 14 14 14 13 13 12 12 11 11 11 10 10 10 9 9 9 8 8 8 7 7 6 6 6 5 4 4 4 4 3 3 3 2 2 2 1
17 17 17 16 16 15 15 14 14 13 13 13 12 12 11 11 11 10 10 9 9 9 8 8 8 7 7 6 6 6 5 5 4 4 4 3 3 2 2 1 1 1 0
17 17 16 16 16 15 15 14 14 13 13 12 12 11 11 11 10 10 9 9 9 8 8 7 7 7 6 6 6 5 5 4 3 3 3 2 2 1 1 1 0 -0 -0
17 16 16 16 15 15 15 14 14 13 13 12 12 11 11 11 10 10 9 9 8 8 8 7 7 6 6 6 5 4 4 3 3 2 2 2 1 1 -0 -0 -1 -1 -1
16 16 16 16 15 15 14 14 13 13 12 12 11 11 10 10 10 9 9 8 8 8 7 7 6 6 6 5 4 4 3 3 2 2 1 1 0 -0 -1 -1 -2 -2 -2
16 16 16 15 15 14 14 14 13 13 12 11 11 10 10 10 10 9 8 8 8 7 7 6 6 5 5 4 4 3 3 2 2 1 1 0 -0 -1 -2 -2 -3 -3 -3
15 15 15 15 15 14 14 13 13 12 12 11 10 10 10 10 9 8 8 7 7 7 6 6 5 5 4 4 3 3 2 2 1 0 -0 -1 -1 -2 -3 -3 -3 -4 -4
15 15 15 14 14 14 13 13 12 12 11 11 10 10 9 9 8 8 7 7 7 6 6 5 5 4 4 3 3 2 2 1 0 -0 -1 -1 -2 -3 -3 -4 -4 -5 -5
14 14 14 14 14 13 13 12 12 11 11 10 10 9 9 8 8 7 7 6 6 5 5 4 4 3 3 2 2 1 1 0 -0 -1 -1 -2 -3 -3 -4 -4 -5 -5 -5
14 14 14 13 13 13 12 12 11 11 10 9 9 8 8 8 7 7 6 6 5 5 4 4 3 3 2 2 1 1 0 -0 -1 -1 -2 -2 -3 -4 -4 -5 -5 -6 -6
13 13 13 13 12 12 11 11 10 10 9 8 8 8 7 7 7 6 6 5 5 4 4 3 3 2 1 1 0 -0 -1 -1 -2 -2 -3 -3 -4 -4 -5 -5 -6 -6 -7
12 12 12 12 11 11 10 10 9 9 8 8 7 7 7 6 6 5 5 4 4 3 3 2 2 1 1 0 -0 -1 -1 -2 -3 -3 -3 -4 -4 -5 -5 -6 -6 -7 -7
11 11 11 11 10 10 10 9 8 8 8 7 7 6 6 6 5 4 4 3 3 2 2 1 1 0 -0 -1 -1 -2 -2 -3 -3 -4 -4 -5 -5 -6 -6 -6 -7 -7 -7
10 10 10 10 9 9 9 8 8 8 7 7 6 6 5 5 4 4 3 3 2 1 1 0 0 -0 -1 -1 -2 -3 -3 -4 -4 -5 -5 -6 -6 -6 -7 -7 -7 -8 -8
9 9 9 9 8 8 8 7 7 7 7 6 6 5 5 5 4 3 3 2 2 1 0 -0 -1 -1 -2 -2 -3 -3 -4 -4 -5 -5 -6 -6 -7 -7 -7 -8 -8 -8 -9
8 8 8 8 7 7 6 6 5 5 5 5 5 4 4 3 3 2 2 1 1 0 -0 -1 -1 -2 -2 -3 -3 -4 -4 -5 -6 -6 -6 -7 -7 -8 -8 -8 -9 -9 -9
7 7 7 6 6 6 5 5 5 4 4 3 3 3 3 3 2 2 1 0 -0 -1 -1 -1 -2 -2 -3 -4 -4 -5 -5 -6 -6 -7 -7 -7 -8 -8 -9 -9 -9 -10 -10
6 6 6 6 5 5 4 4 4 3 3 2 2 2 2 1 1 1 0 -1 -1 -1 -2 -2 -3 -3 -4 -4 -5 -5 -6 -6 -7 -7 -7 -8 -8 -9 -9 -9 -10 -10 -10
5 5 5 4 4 4 3 3 3 2 2 1 1 1 0 0 -0 -1 -1 -1 -1 -2 -2 -3 -3 -4 -4 -5 -5 -6 -6 -7 -7 -7 -8 -8 -9 -9 -9 -10 -10 -10 -10
3 3 3 3 3 2 2 2 1 1 1 0 0 -0 -1 -1 -1 -1 -2 -2 -2 -2 -3 -4 -4 -4 -5 -5 -6 -6 -7 -7 -7 -8 -8 -8 -9 -9 -10 -10 -10 -10 -11
2 2 2 2 2 1 1 1 1 0 0 -0 -1 -1 -1 -1 -1 -2 -2 -3 -3 -3 -4 -4 -5 -5 -5 -6 -6 -7 -7 -7 -8 -8 -8 -9 -9 -10 -10 -10 -10 -10 -11
1 1 1 1 1 0 0 0 -0 -0 -1 -1 -1 -2 -2 -2 -2 -2 -3 -3 -4 -4 -4 -5 -5 -5 -6 -6 -7 -7 -7 -8 -8 -8 -9 -9 -9 -10 -10 -10 -10 -11 -11
0 0 0 -0 -0 -0 -1 -1 -1 -1 -1 -2 -2 -2 -3 -3 -3 -3 -3 -4 -4 -5 -5 -5 -6 -6 -6 -7 -7 -7 -8 -8 -8 -9 -9 -9 -10 -10 -10 -10 -11 -11 -11
-1 -1 -1 -1 -1 -1 -1 -1 -2 -2 -2 -3 -3 -3 -3 -3 -4 -4 -4 -4 -5 -5 -6 -6 -6 -6 -7 -7 -7 -8 -8 -8 -9 -9 -9 -10 -10 -10 -10 -11 -11 -11 -11
-2 -2 -2 -2 -2 -2 -2 -2 -2 -3 -3 -3 -4 -4 -4 -4 -4 -4 -4 -5 -5 -6 -6 -6 -7 -7 -7 -7 -8 -8 -8 -9 -9 -9 -10 -10 -10 -10 -10 -11 -11 -11 -11
-2 -2 -2 -2 -2 -2 -3 -3 -3 -3 -4 -4 -4 -4 -4 -4 -4 -5 -5 -5 -6 -6 -7 -7 -7 -7 -8 -8 -8 -8 -9 -9 -9 -10 -10 -10 -10 -10 -11 -11 -11 -11 -11
Wind_Speed
14 14 14 14 13 12 12 13 12 11 11 11 12 12 11 11 10 10 10 9 10 9 7 8 9 7 6 5 5 5 5 5 9 6 3 2 3 4 5 6 8 8 10
12 12 13 12 12 12 13 12 12 12 11 12 11 11 11 11 11 11 11 10 10 10 9 8 8 6 7 5 5 6 6 6 6 8 4 3 4 4 4 4 5 7 8
10 11 12 12 12 13 13 11 11 11 11 10 11 11 11 10 10 11 10 10 10 10 9 9 8 7 7 6 5 6 5 4 4 5 5 3 3 3 3 4 5 5 8
9 11 12 13 13 13 11 11 11 11 11 11 11 11 10 10 10 10 10 9 9 8 8 8 8 8 8 7 6 6 5 4 4 4 5 4 4 3 2 4 5 4 6
9 11 13 12 11 10 10 10 10 10 10 10 10 9 9 9 9 10 9 9 8 7 6 7 7 7 8 7 5 5 5 4 4 4 5 4 4 3 3 3 5 5 6
10 11 10 10 10 11 11 10 10 10 9 9 10 10 9 8 10 13 10 8 8 8 7 6 5 6 6 7 7 6 6 5 5 4 4 5 6 5 4 4 4 5 5
9 9 9 10 11 11 10 10 11 10 9 9 9 9 9 9 12 13 12 8 7 7 7 5 4 4 4 4 5 6 5 6 7 5 5 6 5 5 4 4 4 5 6
9 9 9 9 10 10 10 11 10 8 9 9 9 9 8 8 11 12 12 8 6 6 6 6 6 4 4 4 4 3 3 3 4 3 4 5 5 4 4 4 4 5 5
9 9 9 10 10 10 11 11 8 8 8 8 8 8 8 7 10 11 10 6 5 5 5 5 5 5 6 5 4 3 3 3 3 4 4 5 6 6 4 1 2 3 5
10 10 9 10 11 11 11 9 7 7 8 7 7 7 8 7 9 11 10 6 5 4 3 4 5 5 6 5 4 4 4 4 2 2 2 3 3 4 5 2 2 3 3
7 6 7 8 10 9 8 7 7 7 7 7 6 5 6 7 9 12 11 6 6 5 4 4 4 6 5 5 4 4 5 3 2 1 1 2 2 2 3 2 2 3 3
4 5 6 7 7 7 8 7 8 9 8 7 6 5 4 5 7 10 11 9 7 5 5 4 4 6 5 4 3 3 3 1 1 1 1 2 2 3 3 3 3 4 4
4 5 5 5 6 7 8 9 8 8 7 6 6 6 4 3 5 9 10 9 8 5 4 5 5 5 3 2 2 2 1 1 1 1 2 3 2 3 2 2 3 4 5
5 4 5 6 6 6 6 7 8 8 7 7 7 6 5 5 5 5 5 6 6 5 4 5 5 4 2 2 1 1 1 1 1 2 2 2 1 1 2 2 3 3 3
5 5 5 5 6 6 5 5 6 6 8 8 8 8 8 7 8 10 7 6 6 6 6 4 3 2 2 1 1 1 1 1 1 1 1 2 2 2 2 2 2 2 3
5 5 4 4 5 5 5 3 3 3 6 7 7 7 5 6 9 10 9 9 9 10 6 4 4 4 4 3 3 2 2 2 2 2 2 2 2 2 3 2 2 3 4
6 6 5 5 6 6 6 6 4 3 5 6 8 8 7 8 10 10 10 10 10 9 5 5 4 4 4 4 3 3 3 2 2 2 2 2 2 2 2 3 3 3 4
5 5 5 5 6 6 6 6 6 6 5 3 4 7 8 9 10 10 10 8 5 4 4 5 4 4 4 3 3 3 2 2 2 2 2 2 2 2 3 3 3 4 4
4 4 4 4 4 4 5 5 5 6 5 4 4 4 7 8 8 9 8 5 5 5 4 4 4 4 3 3 3 3 3 3 3 2 2 2 2 2 3 3 3 6 5
3 5 5 5 5 5 5 5 6 6 6 5 5 5 5 6 5 5 4 4 4 4 4 4 3 4 4 4 3 3 3 3 3 2 2 2 2 2 3 3 3 4 4
3 5 6 5 4 5 5 5 6 6 6 5 5 5 7 5 5 5 4 4 4 4 4 4 3 4 3 3 3 4 4 3 3 3 3 2 2 2 2 3 3 4 4
3 4 4 4 4 5 5 5 5 6 6 6 5 4 6 3 3 3 3 3 3 3 3 4 3 3 4 4 4 4 4 4 3 3 3 3 3 3 2 3 3 3 3
4 5 4 4 4 6 5 5 5 5 5 5 5 5 4 4 3 3 3 3 3 2 3 3 3 2 3 3 4 4 4 4 4 4 4 3 3 3 3 3 3 4 4
4 5 5 5 5 5 5 5 5 5 5 5 5 4 4 4 3 3 3 2 2 2 2 2 3 4 4 3 3 4 5 5 5 5 5 4 4 3 3 3 3 4 4
4 5 5 5 5 5 5 5 5 5 5 5 4 4 3 3 3 3 3 3 3 2 2 2 2 3 4 4 4 4 6 6 6 5 5 4 4 4 4 3 3 3 4
4 4 4 4 5 5 5 5 5 5 5 4 4 4 4 4 3 3 3 3 2 2 2 2 3 3 4 4 5 6 6 6 6 7 5 4 4 4 4 3 3 3 4
Wind_Direction
200 200 200 201 201 199 202 205 204 200 197 197 198 199 201 201 199 201 207 203 209 215 213 215 224 219 220 222 218 218 223 222 256 270 245 258 258 272 291 291 290 289 292
202 199 201 200 196 199 204 204 199 198 197 197 195 197 200 201 199 202 206 203 207 212 214 213 222 217 221 222 219 224 227 221 237 267 271 262 256 267 274 285 298 296 294
198 197 199 198 197 201 204 199 195 195 194 192 192 197 199 199 198 201 202 204 207 212 210 211 217 210 223 224 220 225 226 226 225 249 269 260 264 275 285 287 287 289 297
198 197 201 203 201 201 198 193 193 192 191 191 193 196 197 196 196 197 198 201 205 209 208 209 210 209 218 219 222 225 221 225 231 247 263 269 267 271 272 278 289 283 291
198 202 207 204 198 194 192 192 189 189 191 189 188 190 191 193 197 193 195 197 199 202 205 208 211 212 217 215 219 217 209 222 234 245 258 267 266 268 269 268 283 292 285
202 209 207 197 193 193 193 188 185 187 185 183 188 189 192 199 196 190 188 191 193 196 203 208 210 211 218 225 234 229 216 220 228 236 251 257 261 258 263 273 279 299 295
205 207 201 195 194 194 187 184 187 187 182 185 190 189 195 198 189 188 187 185 189 196 198 197 203 208 204 202 229 238 243 246 239 231 242 250 258 254 256 266 264 268 273
204 206 200 193 193 187 182 188 189 184 184 189 191 190 190 193 187 188 183 182 184 191 193 192 193 198 203 198 195 208 230 245 250 247 234 245 250 249 237 246 257 272 276
207 208 202 193 188 184 187 190 188 182 186 188 185 184 187 191 187 182 173 174 178 185 187 185 187 197 212 205 191 205 231 255 267 269 274 283 293 296 295 291 301 305 294
214 210 200 190 187 189 190 186 181 180 184 179 180 184 183 185 184 178 171 171 176 180 178 187 196 201 210 205 194 197 220 238 242 270 296 311 312 306 307 275 239 266 284
214 201 192 189 187 185 179 175 169 167 166 171 173 176 180 181 180 180 178 178 179 178 182 188 200 200 205 210 213 206 228 228 192 192 254 289 301 295 291 284 251 235 253
187 188 189 185 176 168 167 169 165 164 167 172 171 172 180 180 180 185 185 185 176 174 184 188 194 195 202 210 221 230 231 203 140 171 249 269 275 279 281 283 280 269 254
177 186 182 172 168 167 168 168 167 168 173 177 176 181 182 177 183 185 183 179 175 172 177 183 185 184 179 189 216 216 185 154 175 222 249 258 259 267 279 291 296 297 295
184 185 175 168 168 167 169 169 172 176 178 180 181 185 181 179 181 178 173 169 167 162 157 164 166 161 151 177 192 187 164 193 211 227 251 267 278 283 287 285 291 304 305
187 182 176 171 168 167 168 176 179 186 183 183 187 182 181 192 195 182 169 167 165 161 142 133 139 152 165 176 183 191 187 194 243 248 248 266 276 285 291 293 285 294 288
181 180 176 170 162 160 153 123 109 146 161 165 170 172 184 180 171 175 174 171 166 160 147 159 176 184 193 198 202 211 216 214 223 230 242 254 265 276 286 291 288 283 286
185 181 176 170 166 165 163 160 146 106 121 140 151 156 158 161 164 166 166 168 170 166 167 178 189 196 201 202 204 210 222 221 214 217 228 242 255 266 275 284 289 290 288
176 176 173 172 168 167 168 167 161 157 154 142 146 150 152 157 160 162 162 156 170 176 178 185 192 195 197 200 204 210 215 218 217 216 223 235 244 257 268 275 281 283 290
167 170 163 157 153 154 153 152 151 152 152 146 135 147 151 153 158 165 164 167 177 184 187 190 190 192 196 199 203 206 209 219 220 217 225 233 239 244 258 268 278 295 297
164 157 150 149 147 148 152 153 154 155 154 157 161 162 157 153 162 170 171 172 177 185 188 188 189 192 195 198 200 203 210 218 215 220 228 236 239 238 249 263 272 280 281
157 153 144 143 151 159 160 160 160 160 160 163 168 172 170 166 171 175 179 180 182 186 187 186 190 193 194 196 198 203 209 218 216 216 223 228 233 241 248 256 265 271 279
151 149 151 153 156 160 158 155 155 155 156 157 155 158 159 148 159 169 174 176 174 178 178 180 190 196 197 198 200 204 211 218 218 214 217 222 229 239 246 254 266 272 278
143 144 146 150 152 155 147 147 151 154 157 158 157 159 162 161 162 162 163 161 157 163 167 173 185 198 202 203 200 203 211 219 217 208 210 219 225 234 240 249 260 269 277
141 147 151 150 149 154 154 154 153 155 155 155 159 162 164 161 159 158 158 158 160 167 171 178 190 198 209 213 200 199 203 208 203 198 204 214 224 235 241 249 258 265 271
140 145 151 156 157 157 154 153 152 153 154 155 157 159 157 155 157 163 164 164 166 174 183 187 185 190 201 213 214 212 225 234 230 208 195 204 218 228 235 245 255 265 267
142 147 152 153 154 155 156 156 156 156 156 157 160 162 164 166 170 174 172 170 173 183 194 198 195 198 206 211 219 230 242 242 240 235 208 195 209 224 229 239 248 257 266
Height
1421 1424 1427 1430 1433 1436 1439 1441 1444 1447 1450 1452 1454 1457 1459 1460 1462 1464 1465 1466 1467 1468 1468 1469 1468 1469 1469 1468 1468 1467 1465 1464 1460 1457 1457 1456 1454 1452 1450 1448 1446 1443 1441
1415 1418 1421 1424 1427 1429 1432 1435 1438 1440 1443 1445 1448 1450 1452 1454 1456 1457 1458 1459 1460 1461 1462 1462 1462 1462 1462 1462 1461 1460 1458 1457 1455 1451 1450 1449 1448 1446 1443 1441 1439 1436 1434
1409 1412 1415 1417 1420 1422 1425 1428 1431 1434 1436 1438 1441 1443 1445 1447 1449 1450 1452 1453 1454 1455 1455 1455 1456 1456 1455 1455 1454 1453 1452 1451 1449 1446 1443 1442 1441 1439 1436 1434 1432 1429 1427
1403 1405 1408 1410 1413 1416 1419 1422 1424 1427 1429 1431 1433 1436 1438 1441 1442 1444 1445 1446 1447 1448 1449 1449 1449 1449 1449 1448 1447 1447 1446 1444 1443 1440 1438 1436 1434 1432 1430 1427 1424 1422 1419
1397 1399 1401 1404 1407 1410 1413 1415 1418 1420 1422 1425 1427 1429 1432 1434 1435 1437 1438 1440 1441 1441 1442 1443 1443 1443 1442 1442 1441 1440 1439 1438 1436 1434 1432 1430 1428 1426 1424 1421 1418 1415 1412
1390 1392 1395 1398 1401 1403 1406 1409 1411 1413 1416 1418 1420 1423 1425 1427 1429 1431 1432 1433 1434 1435 1435 1436 1436 1436 1436 1436 1435 1434 1433 1432 1430 1428 1426 1424 1421 1420 1418 1415 1413 1409 1405
1384 1386 1388 1391 1394 1396 1399 1402 1404 1407 1409 1411 1414 1416 1418 1420 1423 1424 1426 1427 1428 1428 1429 1429 1429 1429 1429 1429 1428 1428 1427 1426 1425 1423 1420 1418 1416 1414 1412 1410 1407 1404 1401
1378 1380 1382 1384 1386 1389 1392 1395 1398 1400 1402 1405 1407 1410 1412 1414 1416 1418 1420 1421 1422 1422 1423 1423 1423 1423 1423 1423 1422 1421 1420 1420 1418 1417 1415 1413 1411 1409 1407 1405 1402 1399 1396
1371 1373 1375 1377 1380 1382 1385 1388 1391 1393 1396 1398 1401 1403 1405 1407 1410 1412 1413 1414 1415 1416 1417 1417 1417 1417 1417 1417 1416 1415 1414 1413 1412 1411 1409 1408 1406 1404 1402 1400 1396 1393 1390
1365 1367 1369 1371 1373 1375 1378 1381 1384 1387 1390 1392 1395 1397 1399 1401 1404 1405 1407 1408 1408 1409 1410 1411 1411 1411 1411 1411 1410 1409 1408 1407 1406 1404 1403 1402 1400 1398 1397 1394 1392 1389 1386
1359 1361 1362 1364 1367 1369 1372 1375 1378 1381 1384 1387 1389 1391 1393 1395 1397 1399 1400 1402 1402 1403 1404 1404 1405 1405 1406 1405 1404 1403 1402 1402 1400 1399 1397 1396 1395 1393 1391 1389 1387 1385 1382
1353 1354 1356 1358 1361 1363 1366 1369 1372 1375 1378 1380 1383 1384 1387 1389 1391 1392 1394 1396 1397 1398 1398 1399 1399 1400 1400 1400 1399 1398 1397 1396 1395 1393 1392 1390 1389 1388 1386 1384 1382 1380 1378
1348 1349 1350 1352 1355 1357 1360 1363 1366 1369 1371 1373 1376 1378 1380 1382 1384 1386 1388 1389 1391 1392 1393 1394 1394 1394 1394 1394 1394 1393 1392 1391 1390 1388 1387 1386 1384 1383 1381 1380 1378 1376 1374
1342 1343 1345 1346 1349 1351 1354 1357 1360 1362 1365 1367 1369 1371 1374 1376 1378 1380 1382 1384 1385 1386 1387 1388 1389 1389 1389 1389 1389 1388 1387 1386 1385 1384 1383 1381 1380 1378 1377 1375 1373 1371 1369
1337 1338 1339 1341 1343 1345 1348 1351 1354 1356 1359 1361 1363 1365 1367 1369 1372 1374 1376 1378 1379 1381 1382 1382 1383 1383 1383 1383 1383 1383 1382 1382 1381 1380 1378 1377 1376 1374 1373 1371 1369 1367 1365
1331 1332 1334 1336 1338 1340 1343 1346 1349 1352 1354 1357 1359 1361 1363 1366 1368 1369 1371 1373 1374 1376 1377 1377 1377 1378 1378 1378 1378 1378 1378 1377 1376 1375 1374 1373 1372 1370 1369 1367 1366 1363 1361
1326 1327 1329 1330 1333 1335 1337 1340 1342 1346 1349 1351 1353 1356 1358 1360 1362 1364 1366 1368 1370 1371 1371 1372 1372 1373 1373 1373 1373 1373 1373 1372 1372 1371 1370 1369 1368 1366 1365 1363 1362 1360 1358
1322 1323 1324 1326 1328 1330 1333 1335 1338 1340 1342 1345 1348 1351 1353 1355 1357 1359 1361 1363 1364 1365 1366 1367 1367 1368 1368 1369 1369 1369 1368 1368 1367 1366 1365 1365 1363 1362 1361 1360 1358 1356 1355
1317 1319 1320 1322 1324 1326 1329 1331 1333 1336 1338 1340 1343 1346 1349 1351 1353 1355 1356 1358 1359 1360 1361 1362 1363 1363 1364 1364 1364 1364 1364 1363 1363 1362 1361 1360 1359 1358 1357 1356 1355 1353 1352
1313 1315 1317 1318 1320 1322 1325 1327 1329 1332 1334 1337 1339 1341 1344 1346 1348 1350 1351 1353 1354 1356 1357 1357 1358 1359 1359 1360 1359 1359 1359 1359 1358 1357 1357 1356 1355 1354 1353 1352 1351 1350 1349
1310 1311 1313 1315 1317 1319 1321 1324 1326 1328 1330 1333 1335 1338 1340 1342 1343 1345 1347 1348 1350 1351 1353 1353 1354 1354 1355 1355 1355 1354 1354 1354 1353 1353 1353 1352 1351 1351 1350 1349 1348 1347 1346
1307 1308 1310 1312 1314 1316 1318 1321 1323 1324 1327 1329 1332 1335 1337 1338 1340 1341 1343 1345 1346 1348 1349 1349 1350 1350 1350 1350 1350 1350 1350 1349 1349 1349 1348 1348 1347 1347 1346 1346 1345 1344 1343
1304 1305 1307 1309 1311 1314 1316 1318 1320 1322 1324 1327 1329 1331 1333 1335 1336 1338 1340 1341 1342 1344 1344 1345 1345 1346 1346 1346 1346 1346 1345 1345 1345 1345 1344 1344 1344 1343 1343 1343 1342 1342 1340
1302 1303 1305 1307 1309 1311 1313 1315 1317 1319 1321 1324 1326 1328 1330 1332 1334 1335 1336 1338 1339 1340 1340 1341 1341 1341 1341 1341 1341 1341 1341 1341 1341 1341 1340 1340 1340 1340 1340 1340 1340 1339 1338
1300 1301 1303 1305 1306 1308 1310 1312 1314 1317 1319 1321 1323 1325 1327 1329 1330 1332 1333 1334 1335 1336 1336 1337 1337 1337 1337 1337 1337 1337 1337 1337 1337 1337 1337 1337 1337 1337 1337 1337 1337 1337 1336
1298 1299 1301 1303 1304 1306 1308 1310 1312 1314 1316 1318 1320 1322 1324 1326 1327 1329 1330 1330 1331 1332 1332 1333 1333 1333 1333 1333 1333 1333 1333 1333 1334 1334 1334 1334 1334 1334 1335 1335 1334 1334 1334